Track TEMPEST-D now! 10-day predictions TEMPEST-D is classified as:
1 43547U 98067NV 21017.21787034 .00011795 00000-0 94058-4 0 9999 2 43547 51.6348 308.1808 0006286 129.0031 231.1527 15.71652377143001